Home   Weather   Göttingen   Past weeks

Flag for Germany Past Weather in Göttingen, Lower Saxony, Germany — Yesterday and Last 2 Weeks

Now
39 °F

Broken clouds.


Feels Like: 32 °F
Forecast: 31 / 42 °F
Wind: 12 mph from Southwest

Location: Kassel / Calden

Current Time: Dec 9, 2016 at 12:41:22 pm

Latest Report: Dec 9, 2016 at 11:50 am


Visibility: 4 mi

Pressure: 30.36 "Hg

Humidity: 100%

Dew Point: 39 °F

Location of GöttingenLocation

Past Weather in Göttingen — Graph

°F

Göttingen Temperature Yesterday

Maximum temperature yesterday: 34 °F (at 12:20 pm)
Minimum temperature yesterday: 30 °F (at 5:50 am)
Average temperature yesterday: 32 °F

High & Low Weather Summary for the Past Weeks

 TemperatureHumidityPressure
High52 °F (Nov 24, 1:50 pm)100% (Nov 24, 6:20 pm)30.57 "Hg (Nov 24, 6:20 pm)
Low16 °F (Dec 4, 7:20 am)17% (Dec 3, 10:20 am)30.04 "Hg (Nov 26, 2:50 pm)
Average32 °F91%30.30 "Hg
* Reported Nov 24 11:20 am — Dec 9 11:20 am, Göttingen, Weather by CustomWeather, © 2016

Note: Actual official high and low records may vary slightly from our data, if they occured in-between our weather recording intervals... More about our weather records

Advertising

Göttingen Weather History for the Previous 24 Hours

Scroll right to see more
 ConditionsComfort  
Time TempWeatherWind HumidityBarometerVisibility
11:20 am
Fri, Dec 9
37 °FFog.13 mph100%30.36 "Hg3 mi
10:50 am37 °FFog.10 mph100%30.36 "Hg3 mi
10:20 am37 °FFog.5 mph100%30.36 "Hg3 mi
9:50 am36 °FDrizzle. Fog.8 mph100%30.36 "Hg2 mi
9:20 am37 °FLow clouds.5 mph100%30.33 "Hg4 mi
8:50 am36 °FFog.6 mph100%30.33 "Hg3 mi
8:20 am36 °FDrizzle. Fog.8 mph100%30.33 "Hg2 mi
7:50 am36 °FDrizzle. Low clouds.6 mph100%30.33 "Hg3 mi
7:20 am36 °FDrizzle. Fog.3 mph100%30.33 "Hg2 mi
6:50 am36 °FDrizzle. Fog.6 mph100%30.33 "Hg3 mi
7:50 pm
Thu, Dec 8
32 °FClear.6 mph93%30.36 "Hg4 mi
7:20 pm32 °FClear.3 mph93%30.36 "Hg5 mi
6:50 pm30 °FClear.10 mph100%30.33 "Hg4 mi
6:20 pm30 °FClear.7 mph100%30.36 "Hg4 mi
5:50 pm32 °FClear.5 mph93%30.36 "Hg5 mi
5:20 pm32 °FClear.7 mph100%30.36 "Hg5 mi
4:50 pm32 °FClear.6 mph93%30.36 "Hg5 mi
4:20 pm32 °FClear.8 mph100%30.36 "Hg5 mi
3:50 pm32 °FClear.7 mph100%30.36 "Hg5 mi
3:20 pm32 °FClear.8 mph100%30.36 "Hg5 mi
2:50 pm34 °FClear.8 mph93%30.36 "Hg5 mi
2:20 pm32 °FClear.9 mph100%30.36 "Hg5 mi
1:50 pm34 °FClear.10 mph93%30.36 "Hg5 mi
12:50 pm34 °FClear.12 mph93%30.39 "Hg5 mi
12:20 pm34 °FClear.9 mph93%30.39 "Hg5 mi
Weather by CustomWeather, © 2016

See weather overviewHow to use our weather pages